Location: *
(50.6843°S, 178.1067°W)
Time: 12:48:45
(UTC+00:00)

Daily predictions for brighter satellites

Satellite Brightness Start Highest point End
(mag) Time Altitude Azimuth Time Altitude Azimuth Time Altitude Azimuth
CZ-4C R/B 3.8 15:35:01 36° SSE 15:35:01 36° SSE 15:38:37 10° SE
Okean O Rocket 4.5 15:36:17 10° ENE 15:37:18 14° E 15:37:18 14° E
Cosmos 1697 Rocket 3.7 16:02:54 44° E 16:02:54 44° E 16:07:30 10° SE
USA 234 3.5 15:56:41 10° E 16:02:51 62° SSE 16:02:51 62° SSE
ATLAS 2AS CENTAUR R/B 4.0 16:04:40 25° S 16:04:40 25° S 16:08:59 10° SE
CZ-4B R/B 4.1 16:05:52 10° NE 16:11:13 47° ESE 16:12:45 38° SSE
Lacrosse 5 rocket 4.0 16:16:12 17° ESE 16:16:12 17° ESE 16:17:11 10° ESE
Cosmos 1937 Rocket 4.5 16:15:37 44° E 16:15:37 44° E 16:19:36 10° NE
Nadezhda 4 Rocket 4.2 16:19:04 66° SSE 16:19:04 66° SSE 16:24:27 10° SSE
ATLAS CENTAUR R/B 3.7 16:35:12 21° SSE 16:35:27 21° SSE 16:39:09 10° ESE
Meteor 1-21 4.3 16:35:57 61° NNE 16:36:58 78° E 16:42:46 10° SSE
Cosmos 1726 4.4 16:43:50 21° NE 16:43:50 21° NE 16:45:14 10° NNE
NOSS 2-3 (E) 4.4 16:48:22 70° WNW 16:48:34 70° NW 16:54:08 10° NNE
Cosmos 2263 Rocket 2.5 16:49:22 40° S 16:51:20 64° SE 16:57:01 10° NE
Helios 1A Rocket 4.5 16:51:37 10° NE 16:55:21 34° ESE 16:57:51 18° S
Envisat 3.1 16:53:07 10° NNE 16:58:14 75° ESE 17:01:08 27° S
NOAA 12 4.5 16:55:22 10° NNE 17:00:34 63° ESE 17:05:26 12° S
Cosmos 1461 4.1 17:03:00 31° NNE 17:03:00 31° NNE 17:05:10 10° NNE
Cosmos 858 Rocket 4.4 17:03:38 71° WNW 17:03:38 71° WNW 17:08:48 10° NNE
NOSS 3-1 (C) 4.3 17:06:26 30° NNW 17:06:26 30° NNW 17:09:45 10° N
Cosmos 2285 Rocket 4.3 17:02:17 18° SSW 17:07:17 67° ESE 17:13:43 10° NE
Meteor 2-10 3.8 17:06:37 56° SSW 17:07:41 76° W 17:12:47 10° N
USA 267 3.7 17:02:43 10° ESE 17:09:15 58° NE 17:14:36 16° NW
Okean O Rocket 1.9 17:11:04 10° N 17:14:45 53° NNW 17:14:45 53° NNW
Cosmos 1980 Rocket 2.1 17:14:37 21° NNW 17:18:35 88° SW 17:24:17 10° SSE
Cosmos 1763 Rocket 3.4 17:15:53 27° NNW 17:18:50 80° WSW 17:24:10 10° SSE
Cosmos 2195 Rocket 4.4 17:12:48 10° NNW 17:19:09 72° W 17:25:37 10° S
CORIOLIS 4.1 17:15:18 10° NNE 17:20:46 89° WNW 17:26:13 10° SSW
CZ-4C R/B 3.5 17:20:13 30° SW 17:21:30 33° SSW 17:27:06 10° SE
Cosmos 2369 3.7 17:20:46 47° W 17:22:00 56° SW 17:27:41 10° SSE
ARGOS Delta rocket 4.1 17:18:24 10° NNE 17:23:20 70° ESE 17:28:03 10° S
USA 229 DEB 4.2 17:23:20 35° WNW 17:23:37 35° WNW 17:29:26 10° N
USA 229 4.2 17:23:25 36° WNW 17:23:44 36° WNW 17:29:34 10° N
Cosmos 1898 Rocket 4.3 17:26:06 33° NW 17:26:06 33° NW 17:29:52 10° NNW
Cosmos 1844 Rocket 4.1 17:23:06 12° SSW 17:27:50 35° SE 17:33:02 10° ENE
Cosmos 468 Rocket 4.0 17:30:50 35° WNW 17:32:51 56° WSW 17:38:03 10° SSE
Feng Yun 1-1 Rocket 4.2 17:27:50 10° NNE 17:33:23 87° ESE 17:39:08 10° SSW
NOSS 3-1 (A) 3.9 17:34:58 34° W 17:35:46 36° WNW 17:40:48 10° N
Aureole 3 Rocket 3.0 17:36:45 49° WNW 17:36:45 49° WNW 17:40:45 10° N
KORONAS-FOTON 4.3 17:33:00 10° N 17:36:48 61° E 17:40:41 10° SSE
Cosmos 2026 Rocket 3.9 17:32:13 10° NNW 17:38:19 61° WSW 17:44:37 10° S
Cosmos 1939 Rocket 3.9 17:37:29 10° NE 17:41:26 47° ESE 17:45:29 10° S
Cosmos 1570 Rocket 4.0 17:36:12 10° NNW 17:41:37 86° WSW 17:47:05 10° SSE
Cosmos 2278 3.7 17:38:08 22° NW 17:41:42 57° SW 17:47:22 10° SSE
Cosmos 540 Rocket 3.5 17:36:32 10° NNW 17:41:46 87° ENE 17:47:02 10° SSE
Cosmos 1689 Rocket 2.0 17:39:01 10° SSE 17:42:07 88° E 17:45:11 10° NNW
SMAP 3.3 17:38:53 10° N 17:43:26 48° W 17:45:30 29° SW
SL-16 R/B 3.2 17:38:00 10° N 17:43:28 49° ENE 17:48:59 10° SE
CZ-4 R/B 2.6 17:40:40 10° NE 17:44:42 45° ESE 17:48:50 10° S
FengYun 1-2 T 4.2 17:40:07 10° NNE 17:45:45 85° WNW 17:51:30 10° SSW
Cosmos 1697 Rocket 3.2 17:44:41 32° W 17:46:10 38° SW 17:51:30 10° SSE
USA 234 3.3 17:39:38 10° NE 17:46:12 68° NW 17:50:12 26° WSW
Cosmos 1626 4.0 17:43:27 10° NNE 17:46:53 34° E 17:50:21 10° SSE
Cosmos 841 Rocket 3.4 17:42:32 10° NNW 17:47:51 83° WSW 17:53:14 10° SSE
Cosmos 2228 3.0 17:43:49 10° S 17:48:13 83° E 17:52:30 10° NNE
Cosmos 2278 Rocket 4.4 17:44:35 10° S 17:48:25 18° SSE 17:52:15 10° ESE
Cosmos 372 Rocket 3.9 17:45:25 24° SW 17:48:30 63° WNW 17:53:32 10° N
Cosmos 1953 3.2 17:50:07 31° WNW 17:50:07 31° WNW 17:53:01 10° NNW
Okean-O 3.0 17:45:52 10° NNE 17:50:19 67° ESE 17:54:49 10° S
Cosmos 1092 Rocket 4.4 17:45:52 10° NW 17:51:38 39° WSW 17:57:28 10° S
CZ-4B R/B 3.8 17:46:50 10° NNW 17:51:55 34° W 17:54:39 23° SW
Lacrosse 5 rocket 2.1 17:51:51 32° SW 17:52:42 35° S 17:56:34 10° ESE
Cosmos 1908 3.2 17:52:24 22° SSW 17:54:47 61° W 17:58:36 10° N
Cosmos 2150 Rocket 4.0 17:51:02 15° SSW 17:55:36 77° WNW 18:00:57 10° NNE
Cosmos 1125 Rocket 3.7 17:51:01 11° SSW 17:56:10 76° ESE 18:01:25 10° NNE
Cosmos 1937 Rocket 4.3 17:55:50 27° W 17:56:14 28° W 18:00:34 10° NNW
ATLAS 2AS CENTAUR R/B 3.8 17:52:05 16° SW 17:56:21 31° SSE 18:02:18 10° E
CZ-2D R/B 4.0 17:52:33 10° NNE 17:56:23 54° ESE 18:00:18 10° S
YAOGAN 6 3.3 17:54:10 10° NNW 17:57:05 32° WNW 17:57:05 32° WNW
Meteor 2-15 4.5 17:52:53 10° S 17:59:10 88° WNW 18:05:22 10° N
Cosmos 1300 3.5 17:56:07 10° S 17:59:57 52° ESE 18:03:44 10° NNE
Cosmos 1025 Rocket 3.7 18:00:15 29° W 18:00:42 30° WSW 18:04:36 10° S
CZ-4 R/B 4.4 18:01:05 10° NNE 18:05:16 88° ESE 18:09:30 10° SSW
COSMO-SKYMED 1 2.8 18:03:02 10° SSE 18:07:30 74° ENE 18:11:53 10° N
H-2A R/B 4.2 18:05:26 10° SSW 18:06:15 13° SSW 18:06:15 13° SSW
Meteor 1-24 Rocket 4.2 18:03:13 10° N 18:08:30 60° E 18:13:48 10° SSE
ASTEX 1 3.4 18:03:49 10° N 18:08:42 60° W 18:13:40 10° SSW
ADEOS Rocket 2.7 18:04:11 10° SSE 18:09:47 80° WSW 18:15:24 10° NNW
Cosmos 1892 Rocket 4.0 18:06:35 10° N 18:11:03 67° E 18:15:32 10° SSE
Cosmos 1655 Rocket 3.9 18:08:48 10° NNW 18:15:04 72° WSW 18:21:24 10° S
BREEZE-M DEB (TANK) 4.1 18:12:42 18° WNW 18:15:17 35° NNW 18:25:05 10° NE
ATLAS CENTAUR R/B 2.2 18:11:23 15° SW 18:15:19 60° SE 18:20:09 10° NE
Cosmos 1726 4.3 18:18:23 12° WNW 18:18:23 12° WNW 18:18:51 10° NW
Cosmos 1356 Rocket 3.3 18:16:14 10° SSW 18:20:25 79° W 18:24:38 10° N
YAOGAN 1 2.7 18:16:33 10° NNE 18:20:56 83° ESE 18:25:22 10° SSW
IRS-1C Rocket 4.4 18:16:00 10° N 18:21:04 45° W 18:26:13 10° SSW
Cosmos 2266 Rocket 4.0 18:15:38 10° NNW 18:21:58 82° W 18:28:16 10° S
Cosmos 2322 Rocket 2.4 18:17:44 10° NNW 18:23:28 79° ENE 18:29:15 10° SSE
Meteor 2-5 Rocket 3.7 18:18:06 10° NNW 18:23:43 83° WSW 18:29:23 10° SSE
Cosmos 1674 3.2 18:22:39 10° NW 18:26:10 35° WSW 18:29:45 10° S
Aureole 3 4.0 18:22:10 10° SSW 18:26:43 38° W 18:30:22 10° NNW
Cosmos 2058 Rocket 3.0 18:22:41 10° SSW 18:27:11 79° W 18:31:39 10° N
USA 186 4.3 18:26:17 10° ENE 18:28:03 16° ESE 18:29:53 10° SSE
Cosmos 2292 Rocket 4.2 18:23:47 10° NNW 18:30:15 66° W 18:35:08 10° S
Helios 1A Rocket 3.9 18:26:59 10° NNW 18:30:33 28° W 18:34:06 11° SW
Cosmos 2315 Rocket 4.0 18:28:18 10° SSW 18:34:38 75° W 18:40:51 10° N
Cosmos 2263 Rocket 3.2 18:31:05 14° SW 18:34:50 26° WNW 18:39:30 10° NNW
Cosmos 1606 Rocket 4.2 18:31:03 10° SSW 18:35:04 35° W 18:39:02 10° NNW
Envisat 4.4 18:34:20 10° NW 18:37:51 18° W 18:41:19 10° SW
ARGOS 4.1 18:34:41 10° NE 18:39:52 50° ESE 18:45:08 10° S
USA 116 3.7 18:37:07 10° SSE 18:40:18 65° ENE 18:43:33 10° N
Cosmos 1437 3.9 18:40:34 10° WNW 18:43:00 21° WSW 18:45:29 10° SSW
USA 267 3.3 18:45:48 10° ESE 18:52:23 69° SSW 18:58:56 10° WNW
ATLAS 5 CENTAUR R/B 2.7 18:46:20 10° NW 18:53:31 90° ENE 18:59:59 10° SE
Cosmos 1943 Rocket 4.4 18:51:25 10° S 18:53:35 12° SSE 18:55:45 10° SE
Cosmos 2237 4.5 18:48:20 10° NNW 18:54:02 78° ENE 18:59:49 10° SSE
Cosmos 2360 Rocket 2.5 18:48:51 10° NNW 18:54:30 75° ENE 19:00:12 10° SSE
Cosmos 1844 3.7 18:48:57 10° SSW 18:54:40 85° WNW 19:00:22 10° NNE
SKYMED 2 4.0 18:51:18 10° S 18:55:27 40° WSW 18:59:34 10° NW
H-2A R/B 2.2 18:50:36 10° NNE 18:55:34 78° ESE 19:00:42 10° SSW
Cosmos 2084 3.6 18:55:06 10° SW 18:59:22 61° NW 19:03:36 10° NNE
Cosmos 1980 Rocket 3.3 18:58:56 10° W 19:03:23 23° SW 19:07:52 10° SSE
Okean 1-7 Rocket 3.9 19:02:25 10° NNW 19:06:45 46° WSW 19:11:11 10° S
Resurs 01 Rocket 3.9 19:04:10 10° ENE 19:07:41 23° ESE 19:11:14 10° S
Cosmos 1812 Rocket 3.7 19:05:02 10° S 19:09:39 87° E 19:14:11 10° N
CZ-4C R/B 3.7 19:06:22 10° SW 19:11:53 26° S 19:16:38 10° ESE
Cosmos 1844 Rocket 3.0 19:06:25 10° SW 19:12:01 55° WNW 19:17:33 10° N
